Flag for U.S.A. Weather past 2 weeks in Fall River, Massachusetts, U.S.A.

Now
48 °F

Light rain. Low clouds.


Feels Like: 43 °F
Forecast: 48 / 52 °F
Wind: 12 mph from Northeast

Location: New Bedford Regional Airport

Current Time: Jun 1, 2015 at 9:42:51 PM

Latest Report: Jun 1, 2015 at 8:53 PM


Visibility: 10 mi

Pressure: 30.18 "Hg

Humidity: 96%

Dew point: 47 °F

Location of Fall RiverLocation

Historic Weather in Fall River — Graph

°F

Fall River temperature yesterday

Maximum temperature yesterday: 77 °F (at 11:53 AM)
Minimum temperature yesterday: 50 °F (at 8:53 PM)
Average temperature yesterday: 64 °F

Past Weeks' High & Low Weather Summary

 TemperatureHumidityPressure
High79 °F (May 29, 11:53 AM)100% (May 19, 5:53 PM)30.33 "Hg (May 19, 5:53 PM)
Low42 °F (May 21, 1:53 AM)24% (May 22, 5:53 PM)29.71 "Hg (May 20, 12:53 AM)
Average61 °F74%30.11 "Hg
* Reported May 17 7:53 PM — Jun 1 7:53 PM, Fall River, Weather by CustomWeather, © 2015

Note: Actual official high and low records may vary slightly from our data, if they occured in-between our weather recording intervals... More about our weather records

Advertising

Fall River weather history for previous 24 hours

 ConditionsComfort  
Time TempWeatherWind HumidityBarometerVisibility
7:53 PM
Mon, Jun 1
49 °FLow clouds.10 mph93%30.19 "Hg10 mi
6:53 PM49 °FLight rain. Low clouds.9 mph93%30.19 "Hg10 mi
5:53 PM49 °FLight rain. Fog.9 mph93%30.18 "Hg3 mi
4:53 PM49 °FOvercast.16 mph93%30.18 "Hg10 mi
3:53 PM50 °FLow clouds.16 mph89%30.18 "Hg8 mi
2:53 PM52 °FLow clouds.10 mph89%30.19 "Hg7 mi
1:53 PM52 °FFog.9 mph93%30.19 "Hg6 mi
12:53 PM52 °FFog.7 mph93%30.19 "Hg4 mi
11:53 AM52 °FFog.10 mph93%30.19 "Hg4 mi
10:53 AM52 °FLight rain. Fog.9 mph93%30.19 "Hg5 mi
9:53 AM52 °FLow clouds.8 mph93%30.19 "Hg7 mi
8:53 AM51 °FLow clouds.9 mph96%30.20 "Hg8 mi
8:00 AM51 °FFog.6 mph96%30.20 "Hg3 mi
7:04 AM50 °FFog.9 mph96%30.19 "Hg3 mi
6:53 AM50 °FFog.8 mph96%30.19 "Hg4 mi
6:04 AM50 °FLow clouds.10 mph96%30.18 "Hg7 mi
5:53 AM50 °FLow clouds.9 mph96%30.17 "Hg8 mi
4:53 AM50 °FLow clouds.12 mph93%30.17 "Hg10 mi
3:53 AM50 °FLow clouds.9 mph93%30.18 "Hg9 mi
2:53 AM50 °FLow clouds.12 mph93%30.19 "Hg10 mi
1:53 AM50 °FFog.13 mph93%30.20 "Hg6 mi
12:53 AM50 °FLow clouds.8 mph93%30.21 "Hg10 mi
11:53 PM
Sun, May 31
50 °FLow clouds.14 mph93%30.22 "Hg10 mi
10:53 PM50 °FLight rain. Overcast.14 mph93%30.22 "Hg10 mi
9:53 PM50 °FOvercast.9 mph93%30.22 "Hg10 mi
Weather by CustomWeather, © 2015

See weather overviewHow to use our weather pages